This is the latest recevied weather packets stored in our database for station/object XE1E-15. If no packets are shown the sender has not sent any weather packets the latest 10 day(s).
| Time | Temp. | Humidity | Pressure | Rain* | Wind** | Luminosity | Snow |
|---|---|---|---|---|---|---|---|
| 1777577981 | 32.22° C | 18% | 1019.9 hPa | - | - | - | - |
| 1777577502 | 31.67° C | 17% | 1020.1 hPa | - | - | - | - |
| 1777576542 | 32.22° C | 17% | 1020.4 hPa | - | - | - | - |
| 1777575582 | 31.67° C | 21% | 1020.6 hPa | - | - | - | - |
| 1777574622 | 31.67° C | 20% | 1021 hPa | - | - | - | - |
| 1777573662 | 31.11° C | 17% | 1020.9 hPa | - | - | - | - |
| 1777572702 | 31.67° C | 18% | 1021.2 hPa | - | - | - | - |
| 1777571742 | 33.33° C | 18% | 1021.4 hPa | - | - | - | - |
| 1777570781 | 33.33° C | 17% | 1021.5 hPa | - | - | - | - |
| 1777569821 | 34.44° C | 18% | 1021.7 hPa | - | - | - | - |
| 1777568861 | 34.44° C | 17% | 1021.8 hPa | - | - | - | - |
| 1777567901 | 33.89° C | 19% | 1022 hPa | - | - | - | - |
| 1777566941 | 31.67° C | 19% | 1022.1 hPa | - | - | - | - |
| 1777565981 | 30° C | 21% | 1022.3 hPa | - | - | - | - |
| 1777565021 | 30.56° C | 22% | 1022.4 hPa | - | - | - | - |
| 1777564061 | 30° C | 22% | 1022.4 hPa | - | - | - | - |
| 1777563101 | 28.33° C | 25% | 1022.6 hPa | - | - | - | - |
| 1777562140 | 28.89° C | 25% | 1022.6 hPa | - | - | - | - |
| 1777561180 | 27.22° C | 25% | 1022.6 hPa | - | - | - | - |
| 1777560220 | 26.67° C | 27% | 1022.6 hPa | - | - | - | - |
| 1777559260 | 26.11° C | 28% | 1022.5 hPa | - | - | - | - |
| 1777558300 | 26.11° C | 27% | 1022.4 hPa | - | - | - | - |
| 1777557340 | 26.11° C | 29% | 1022.4 hPa | - | - | - | - |
| 1777555903 | 24.44° C | 31% | 1022.3 hPa | - | - | - | - |
| 1777554943 | 23.89° C | 31% | 1022.1 hPa | - | - | - | - |
* Rain since midnight (hover to see other rain measurements)
** Current wind speed in m/s (hover to see current wind gust speed)